OV1-21 R/B, 5397

Orbit data source: Space-Track

OV1-21 R/B, 5397 is space debris in LEO originally from a launch on Sat, 07 Aug 1971 UTC via an ATLAS F launch vehicle from the Air Force Western Test Range (AFWTR). Debris objects in space refer to the collection of defunct objects orbiting the Earth. Examples of debris include non-operational satellites, rocket bodies, and fragments generated from explosions, collisions, or faulty payload assembly.

Loading next visibility...
Identifier
5397, 1971-067B
Orbit
LEO
Country
Flag of USUS
Related business
Manufacturer
GD/Convair
Mission
Spacecraft
Bus & Motor
OV1P, FW4S
Mass
~359 kg wet, ~359 kg dry
Launch date (UTC)
1971-08-07 (55 years ago)
Launch vehicle
ATLAS F
Launch site
Air Force Western Test Range (AFWTR)
Object type
Payload
Rocket body
Debris
Shape & HBR
Unknown
Radar Cross Section
Large (>1 m²)

Expand to show TLE details & history
Last TLE update: 13 hours ago

TLE from 13 hours ago
0 OV1-21 R/B
1 05397U 71067B   26094.98690402  .00000193  00000-0  82430-4 0  9998
2 05397  87.6210  92.9680 0083430  58.3626 302.5668 14.18216722824077
Epoch: 2026-04-04T23:41Z
TLE epoch observation values (Epoch: 2026-04-04T23:41:08.507Z)
Latitude
0.00007°
Longitude
-95.61625°
Altitude
802.407 km
Speed
7.469 km/s
True Right ascension
06h 11m 52s
True Declination
0° 00' 00"
Sunlit
Object was in daylight at epoch
Visualization orbit readout
Latitude
Unknown
Longitude
Unknown
Altitude
Unknown
Speed
Unknown
Apparent Right ascension
Unknown
Apparent Declination
Unknown
Sunlit
N/A
Visualization observer readout
Local Sidereal Time
19:03:48
Azimuth
Unknown
Elevation
Unknown
Doppler factor
Unknown
Orbital elements
Apogee altitude
888.48 km
Perigee altitude
768.233 km
Semi-major axis
7,206.493 km
Eccentricity
0.00834
Inclination
87.621°
RAAN
92.968°
Arg. of periapsis
58.3626°
True anomaly
301.75657°
Mean anomaly
302.5668°
Eccentric anomaly
302.16214°
Mean motion
3.54778 °/min
Orbital period
101.47 mins
BSTAR
0.00008243
Loading maneuver chart data...
Computing Atmospheric mass density...

Documentation

Showing up to 5 results
|